星链-34885 (STARLINK-34885)

基本信息
目录编号:
65328
目录名称:
STARLINK-34885
国际标识:
2025-189F
轨道中心:
EARTH
卫星名称:
星链-34885
卫星全名:
星链-34885 (STARLINK-34885)
卫星状态:
在轨 (已飞行64 天)
发射日期:
2025-08-27 UTC
国别 :
美国 (US)
星等 :
--
轨道信息
数据来源 国际轨道数据 AOE轨道数据
星历时间 2025-10-30T04:20:39+0800
9小时前
查看轨道信息
2025-10-24T17:00:00+0800
5天前
查看轨道信息
半长轴 6825.264km 6825.421km
偏心率 0.0000472 0.0001046
轨道倾角 53.160° 53.159°
近地点辐角 260.357° 56.708°
升交点赤经 95.252° 121.043°
平近点角 99.738° 193.298°
近地点 446.806km 446.572km
远地点 447.452km 448km
周期 93.527分钟 93.531分钟
每日圈数 15.396557 15.396026
详细信息
固有亮度:
5
最大亮度:
2.5
卫星平台:
Starlink V1.0
覆盖范围:
全球
运营商:
太空探索技术公司
运营商所在国:
美国
制造商(研发单位):
太空探索技术公司
制造商所在国:
美国
使用方式:
暂无
卫星简介
Starlink 计划是 SpaceX 推出的全球卫星互联网项目,通过发射低轨道卫星,为全球尤其是偏远地区提供高速、低延迟的互联网服务。自 2019 年起,Starlink 已部署数千颗卫星,旨在缩小全球数字鸿沟,推动互联网普及。该项目还为军事、航空等行业提供通信支持,带来广泛经济效益。
2D轨道图
3D轨道图
轨道高度分析图
轨道倾角分析图
轨道综合分析图
查看轨道综合分析图